EN

Hourly Weather Burntwood

Today, 27 January, Wednesday

Time Temperature Precipitation Wind Pressure Humidity
00:00 +4°C° 0 mm 2 mps 745 mmHg 98%
01:00 +4°C° 0 mm 2 mps 745 mmHg 98%
02:00 +5°C° 0 mm 2 mps 745 mmHg 98%
03:00 +4°C° 0 mm 3 mps 745 mmHg 98%
04:00 +4°C° 0 mm 2 mps 745 mmHg 97%
05:00 +4°C° 0 mm 2 mps 746 mmHg 97%
06:00 +4°C° 0 mm 2 mps 746 mmHg 97%
07:00 +4°C° 0 mm 2 mps 746 mmHg 96%
08:00 +4°C° 0 mm 2 mps 746 mmHg 96%
09:00 +4°C° 0 mm 2 mps 746 mmHg 95%
10:00 +4°C° 0 mm 2 mps 747 mmHg 96%
11:00 +5°C° 0 mm 2 mps 747 mmHg 96%
12:00 +6°C° 0 mm 2 mps 747 mmHg 96%
13:00 +7°C° 0 mm 1 mps 747 mmHg 96%
14:00 +7°C° 0 mm 1 mps 747 mmHg 95%
15:00 +7°C° 0 mm 1 mps 747 mmHg 94%
16:00 +7°C° 0 mm 1 mps 747 mmHg 95%
17:00 +6°C° 0 mm 1 mps 746 mmHg 95%
18:00 +6°C° 0 mm 1 mps 746 mmHg 95%
19:00 +5°C° 1.3 mm 2 mps 746 mmHg 96%
20:00 +5°C° 1.3 mm 2 mps 746 mmHg 97%
21:00 +5°C° 1.3 mm 2 mps 745 mmHg 98%
22:00 +4°C° 2.3 mm 3 mps 745 mmHg 98%
23:00 +4°C° 2.3 mm 4 mps 744 mmHg 98%

Tomorrow, 28 January, Thursday

Time Temperature Precipitation Wind Pressure Humidity
00:00 +3°C° 2.3 mm 5 mps 743 mmHg 98%
01:00 +4°C° 0.9 mm 4 mps 742 mmHg 98%
02:00 +4°C° 0.9 mm 3 mps 741 mmHg 98%
03:00 +6°C° 0.9 mm 2 mps 740 mmHg 99%
04:00 +5°C° 0.5 mm 3 mps 739 mmHg 98%
05:00 +7°C° 0.5 mm 3 mps 739 mmHg 97%
06:00 +7°C° 0.5 mm 4 mps 738 mmHg 96%
07:00 +7°C° 0.3 mm 5 mps 738 mmHg 95%
08:00 +8°C° 0.3 mm 5 mps 738 mmHg 93%
09:00 +8°C° 0.3 mm 6 mps 738 mmHg 92%
10:00 +9°C° 0 mm 6 mps 738 mmHg 89%
11:00 +9°C° 0 mm 7 mps 739 mmHg 85%
12:00 +9°C° 0 mm 7 mps 739 mmHg 82%
13:00 +9°C° 0 mm 6 mps 739 mmHg 82%
14:00 +9°C° 0 mm 5 mps 739 mmHg 83%
15:00 +8°C° 0 mm 4 mps 739 mmHg 84%
16:00 +9°C° 0 mm 3 mps 739 mmHg 87%
17:00 +8°C° 0 mm 3 mps 739 mmHg 89%
18:00 +7°C° 0 mm 2 mps 739 mmHg 92%
19:00 +7°C° 0.6 mm 2 mps 738 mmHg 94%
20:00 +8°C° 0.6 mm 3 mps 738 mmHg 95%
21:00 +8°C° 0.6 mm 3 mps 737 mmHg 97%
22:00 +7°C° 0.5 mm 4 mps 737 mmHg 95%
23:00 +7°C° 0.5 mm 5 mps 737 mmHg 93%

Day after tomorrow, 29 January, Friday

Time Temperature Precipitation Wind Pressure Humidity
00:00 +7°C° 0.5 mm 5 mps 737 mmHg 91%
01:00 +7°C° 0 mm 5 mps 736 mmHg 91%
02:00 +6°C° 0 mm 5 mps 736 mmHg 91%
03:00 +5°C° 0 mm 5 mps 736 mmHg 91%
04:00 +5°C° 0 mm 5 mps 736 mmHg 90%
05:00 +5°C° 0 mm 5 mps 736 mmHg 90%
06:00 +5°C° 0 mm 5 mps 736 mmHg 89%
07:00 +5°C° 0 mm 4 mps 736 mmHg 89%
08:00 +5°C° 0 mm 4 mps 735 mmHg 89%
09:00 +5°C° 0 mm 4 mps 735 mmHg 89%
10:00 +5°C° 0.6 mm 3 mps 735 mmHg 89%
11:00 +7°C° 0.6 mm 3 mps 735 mmHg 90%
12:00 +7°C° 0.6 mm 3 mps 735 mmHg 90%
13:00 +7°C° 0.1 mm 2 mps 736 mmHg 89%
14:00 +8°C° 0.1 mm 2 mps 736 mmHg 88%
15:00 +8°C° 0.1 mm 2 mps 736 mmHg 88%
16:00 +7°C° 0 mm 2 mps 737 mmHg 89%
17:00 +7°C° 0 mm 3 mps 738 mmHg 90%
18:00 +5°C° 0 mm 3 mps 739 mmHg 91%
19:00 +4°C° 0 mm 4 mps 739 mmHg 92%
20:00 +3°C° 0 mm 4 mps 739 mmHg 92%
21:00 +2°C° 0 mm 5 mps 740 mmHg 92%
22:00 +1°C° 0 mm 5 mps 740 mmHg 91%
23:00 +1°C° 0 mm 5 mps 740 mmHg 89%

30 January, Saturday

Time Temperature Precipitation Wind Pressure Humidity
00:00 +1°C° 0 mm 5 mps 740 mmHg 88%
01:00 +1°C° 0 mm 5 mps 739 mmHg 86%
02:00 +1°C° 0 mm 6 mps 738 mmHg 85%
03:00 -1°C° 0 mm 7 mps 737 mmHg 84%
04:00 -1°C° 0 mm 7 mps 737 mmHg 84%
05:00 -1°C° 0 mm 8 mps 737 mmHg 84%
06:00 -1°C° 0 mm 8 mps 736 mmHg 84%
07:00 -1°C° 0 mm 8 mps 736 mmHg 83%
08:00 -1°C° 0 mm 8 mps 737 mmHg 81%
09:00 -3°C° 0 mm 9 mps 737 mmHg 80%
10:00 -1°C° 0 mm 9 mps 737 mmHg 78%
11:00 -1°C° 0 mm 9 mps 738 mmHg 76%
12:00 -1°C° 0 mm 9 mps 738 mmHg 74%
13:00 -1°C° 0 mm 8 mps 739 mmHg 73%
14:00 -1°C° 0 mm 8 mps 739 mmHg 72%
15:00 -1°C° 0 mm 8 mps 740 mmHg 71%
16:00 -1°C° 0 mm 7 mps 740 mmHg 73%
17:00 -2°C° 0 mm 7 mps 741 mmHg 75%
18:00 -3°C° 0 mm 6 mps 742 mmHg 77%
19:00 -2°C° 0 mm 5 mps 743 mmHg 79%
20:00 -2°C° 0 mm 5 mps 743 mmHg 81%
21:00 -3°C° 0 mm 4 mps 744 mmHg 83%
22:00 -3°C° 0 mm 4 mps 744 mmHg 83%
23:00 -2°C° 0 mm 3 mps 745 mmHg 83%

31 January, Sunday

Time Temperature Precipitation Wind Pressure Humidity
00:00 -2°C° 0 mm 3 mps 745 mmHg 84%
01:00 -2°C° 0 mm 3 mps 745 mmHg 84%
02:00 -2°C° 0 mm 3 mps 745 mmHg 85%
03:00 -2°C° 0 mm 2 mps 745 mmHg 85%
04:00 -2°C° 0 mm 2 mps 744 mmHg 84%
05:00 -2°C° 0 mm 2 mps 744 mmHg 83%
06:00 -2°C° 0 mm 3 mps 744 mmHg 82%
07:00 -2°C° 0 mm 3 mps 744 mmHg 78%
08:00 -2°C° 0 mm 4 mps 743 mmHg 73%
09:00 -2°C° 0 mm 5 mps 743 mmHg 69%
10:00 -1°C° 0 mm 5 mps 742 mmHg 65%
11:00 -1°C° 0 mm 6 mps 741 mmHg 62%
12:00 -1°C° 0 mm 6 mps 741 mmHg 58%
13:00 +1°C° 0 mm 6 mps 740 mmHg 56%
14:00 +1°C° 0 mm 6 mps 738 mmHg 54%
15:00 +1°C° 0 mm 6 mps 737 mmHg 51%
16:00 -1°C° 0 mm 6 mps 737 mmHg 51%
17:00 0°C° 0 mm 5 mps 737 mmHg 51%
18:00 -1°C° 0 mm 5 mps 736 mmHg 51%
19:00 -1°C° 0 mm 5 mps 736 mmHg 56%
20:00 -1°C° 0 mm 5 mps 736 mmHg 61%
21:00 -1°C° 0 mm 5 mps 736 mmHg 65%
22:00 -1°C° 0 mm 5 mps 736 mmHg 71%
23:00 -1°C° 0 mm 5 mps 736 mmHg 77%

1 February, Monday

Time Temperature Precipitation Wind Pressure Humidity
00:00 -1°C° 0 mm 5 mps 736 mmHg 83%
01:00 0°C° 0.2 mm 5 mps 736 mmHg 86%
02:00 0°C° 0.2 mm 5 mps 735 mmHg 89%
03:00 0°C° 0.2 mm 4 mps 735 mmHg 92%
04:00 0°C° 0.7 mm 4 mps 735 mmHg 94%
05:00 +1°C° 0.7 mm 4 mps 734 mmHg 95%
06:00 +1°C° 0.7 mm 4 mps 734 mmHg 97%
07:00 +3°C° 0.6 mm 4 mps 734 mmHg 96%
08:00 +4°C° 0.6 mm 4 mps 734 mmHg 95%
09:00 +4°C° 0.6 mm 4 mps 734 mmHg 94%
10:00 +5°C° 0 mm 5 mps 734 mmHg 88%
11:00 +6°C° 0 mm 5 mps 735 mmHg 82%
12:00 +7°C° 0 mm 6 mps 735 mmHg 76%
13:00 +7°C° 0 mm 5 mps 734 mmHg 78%
14:00 +7°C° 0 mm 4 mps 734 mmHg 79%
15:00 +8°C° 0 mm 3 mps 734 mmHg 80%
16:00 +7°C° 0 mm 3 mps 734 mmHg 84%
17:00 +5°C° 0 mm 3 mps 733 mmHg 88%
18:00 +5°C° 0 mm 3 mps 733 mmHg 93%
19:00 +5°C° 0.7 mm 3 mps 733 mmHg 94%
20:00 +6°C° 0.7 mm 2 mps 733 mmHg 96%
21:00 +6°C° 0.7 mm 2 mps 732 mmHg 97%
22:00 +6°C° 0 mm 2 mps 732 mmHg 97%
23:00 +4°C° 0 mm 3 mps 732 mmHg 96%
Show more